Regional Weather Roundup
Issued by NWS

Home | Current Version | Previous Version | Graphics & Text | Print | Product List | Glossary On
Versions: 1 2 3 4 5 6 7 8 9 10 11 12 13 14 15 16 17 18 19 20 21 22 23 24 25 26 27 28 29 30 31 32 33 34 35 36 37 38 39 40 41 42 43 44 45 46 47 48 49 50
518
ASUS45 KBOI 131810
RWRID

IDAHO REGIONAL WEATHER ROUNDUP
NATIONAL WEATHER SERVICE BOISE ID
1100 AM MST SAT FEB 13 2016

NOTE: "FAIR" INDICATES FEW OR NO CLOUDS BELOW 12000 FEET
WITH NO SIGNIFICANT WEATHER AND/OR OBSTRUCTIONS TO VISIBILITY

IDZ012-014-131900-
SOUTHWEST IDAHO


CITY           SKY/WX    TMP DP  RH WIND       PRES   REMARKS
BOISE          SUNNY     41  34  76 CALM      30.34S HAZE
CALDWELL       SUNNY     44  36  73 N7        30.37R
MOUNTAIN HOME  SUNNY     43  35  74 NW8       30.34R
$$

IDZ016-017-131900-
SOUTHCENTRAL IDAHO


CITY           SKY/WX    TMP DP  RH WIND       PRES   REMARKS
BURLEY         LGT RAIN  42  34  73 W14       30.29R
JEROME         SUNNY     37  31  78 SW15      30.30R WCI  28
TWIN FALLS     CLOUDY    42  33  70 W21       30.31R
$$

IDZ019>023-131900-
SOUTHEAST IDAHO


CITY           SKY/WX    TMP DP  RH WIND       PRES   REMARKS
IDAHO FALLS    SUNNY     34  26  72 SW24      30.15F WCI  21
POCATELLO      CLOUDY    40  31  70 SW23G40   30.24R WCI  30
REXBURG        SUNNY     30  22  72 SW10      30.13S WCI  21
$$

IDZ006-010-011-018-031-032-131900-
CENTRAL IDAHO MOUNTAINS


CITY           SKY/WX    TMP DP  RH WIND       PRES   REMARKS
MCCALL         MOSUNNY   37  25  61 W3        30.25S
HAILEY         SUNNY     36  28  75 SE14      30.20R WCI  27
STANLEY          N/A     35  18  49 NW10      30.23R WCI  27
SALMON         MOSUNNY   34  28  80 CALM      30.19S
CHALLIS        MOSUNNY   43  17  35 W13G26    30.16R
$$

IDZ002-004-006-007-026-131900-
NORTHERN IDAHO


CITY           SKY/WX    TMP DP  RH WIND       PRES   REMARKS
LEWISTON       SUNNY     51  34  52 MISG      30.26F
LOWELL           N/A     42  39  89 CALM      30.32S
COEUR D`ALENE  CLOUDY    43  36  75 SW16      30.19F
MULLAN PASS    SNOW      27  26  96 NW8G22    30.10S VSB 1/4 WCI  19
$$




USA.gov is the U.S. government's official web portal to all federal, state and local government web resources and services.